カタログに戻る

CZ-4C DEB

運用中PO
NORAD 38296·DEBRIS·🇨🇳 China

打ち上げ Nov 4, 2010 から Taiyuan Satellite Launch Center

Loading…

次のパス (今後24時間)

TLE

経年Source: Space-Track

元期: Sep 9, 2026, 22:44 UTC

1 38296U 10059F   26252.94774713  .00000210  00000-0  20199-3 0  9999
2 38296  98.7909 163.5411 0238522 197.6530 161.6229 13.77861768790700

AllMySatでCZ-4C DEBをリアルタイム追跡

Download on the App Store